Theta_e
316 316 316 317 317 323 329 327 327 333 330 329 332 327 324 325 325 322 319 319 319 319 320 322 323 323 323 323 325 324 323 327 329 329 329 326 324 321 316 316 317 316 315 314 315 316 316 316 315 315 314 315 316 316 317 317 318 317 317 316 317 317 317 319 320 322 322 323 324 325 325 325 326 326 325 325 326 327 329 329 329 328 328 329 330 332 334 333 334 336 336 336 335 335 334 333 333
316 316 317 318 321 327 332 328 330 334 328 328 330 325 323 325 324 322 320 321 320 319 321 321 322 323 322 322 321 321 323 323 322 323 322 321 323 320 315 317 318 316 315 313 314 314 314 313 313 313 313 313 313 313 313 313 314 313 313 312 312 312 312 313 314 315 316 317 319 320 321 321 322 322 321 321 322 324 325 326 326 326 326 326 326 328 329 330 331 333 333 333 332 332 332 332 332
318 318 318 321 325 328 330 329 333 331 325 328 333 330 322 323 326 323 320 320 320 319 320 320 321 321 321 322 320 321 323 321 319 319 318 321 322 318 316 317 317 316 314 313 313 313 313 313 313 313 313 313 312 312 312 312 312 312 312 311 311 311 311 311 311 311 312 312 313 314 315 316 317 317 316 317 317 318 319 320 321 321 322 322 322 323 324 325 327 328 328 328 330 331 331 331 331
318 320 321 325 329 330 331 332 336 329 326 329 329 331 324 325 327 321 319 319 320 318 318 318 320 319 319 322 320 322 322 320 320 319 319 320 319 317 317 316 315 314 313 313 313 313 314 313 313 313 313 313 312 312 311 311 311 311 310 310 310 310 310 310 310 310 310 310 310 311 311 312 312 312 312 313 313 313 313 313 314 315 315 316 317 317 318 320 321 322 322 323 326 327 328 329 329
320 323 325 327 331 331 331 332 335 328 331 330 321 327 326 325 325 319 319 319 319 318 318 318 320 319 318 321 320 322 322 320 320 319 319 318 318 317 316 315 314 313 313 313 313 314 313 313 313 312 311 310 310 309 309 309 309 309 308 308 308 308 308 308 308 308 308 309 309 309 309 310 310 310 310 310 311 310 311 311 311 311 311 312 312 313 314 315 316 317 317 317 319 320 322 323 324
321 325 326 326 328 328 330 332 335 330 330 328 321 325 324 323 322 318 318 318 319 318 318 317 320 320 318 320 319 321 322 321 320 318 318 318 317 316 315 314 313 313 314 313 313 313 313 312 311 310 309 308 308 308 308 308 308 307 307 307 307 306 307 306 306 306 306 306 307 307 307 308 308 308 308 308 309 309 309 309 309 309 310 310 310 310 311 311 312 313 313 313 314 314 315 316 317
322 324 323 324 325 324 329 332 332 331 327 324 324 325 322 320 318 318 319 318 319 318 318 318 319 320 319 319 319 320 321 321 320 318 317 317 317 316 314 314 314 314 313 313 313 313 312 310 309 309 308 308 308 307 307 307 307 307 306 306 305 305 305 304 304 304 304 304 304 304 304 304 304 305 305 305 305 306 306 306 306 306 307 307 307 308 308 309 309 309 310 310 311 311 312 312 312
323 325 323 327 330 324 327 329 326 325 325 323 321 322 321 319 317 319 320 319 319 317 318 319 318 320 320 318 318 320 320 320 320 318 317 316 317 316 315 314 314 314 313 313 313 312 311 309 309 308 308 308 307 307 307 307 306 305 305 304 304 304 304 304 303 303 303 303 303 303 303 303 303 303 303 303 303 303 303 303 303 303 303 303 304 304 304 304 304 305 305 306 306 307 308 308 309
324 325 323 327 330 326 328 328 325 324 324 324 320 320 321 320 319 320 320 318 318 317 317 318 318 319 319 318 318 319 318 318 318 318 317 316 316 316 315 314 314 314 314 313 313 311 310 309 308 308 308 308 307 307 307 306 305 304 304 304 304 304 304 304 303 304 303 303 303 303 303 303 303 303 303 303 302 303 302 302 302 302 302 302 302 302 302 302 302 302 302 302 303 303 303 304 304
323 323 322 326 329 327 329 327 327 329 325 322 320 320 320 321 320 320 320 319 318 317 317 318 318 317 318 318 318 318 318 318 317 317 316 316 316 316 315 314 314 314 314 313 312 311 310 309 308 308 308 308 308 307 306 305 304 304 304 304 304 304 304 304 304 303 303 303 303 303 302 302 302 302 302 302 302 302 302 302 302 302 302 302 302 302 302 302 302 302 302 302 302 302 302 302 302
323 323 321 324 327 327 330 328 327 332 326 320 319 319 320 320 320 318 318 319 319 317 317 318 318 317 317 317 318 318 318 318 317 316 316 315 315 315 315 315 314 314 314 313 312 311 311 309 308 308 308 308 307 306 304 304 304 304 304 304 304 304 304 304 304 303 303 303 303 302 302 302 302 302 302 302 302 302 302 302 302 302 302 302 302 302 302 302 302 302 302 302 302 302 302 302 302
324 326 324 325 328 326 327 328 327 330 329 324 320 319 320 319 319 319 318 319 318 317 318 318 318 317 317 317 317 318 318 318 317 316 315 315 315 315 315 315 315 314 313 313 312 312 311 310 309 308 308 307 306 305 304 303 303 304 304 304 304 304 304 304 304 303 303 303 302 302 302 302 302 302 302 302 302 302 302 302 302 302 302 302 302 302 302 302 302 302 302 302 302 302 302 302 302
323 324 324 327 331 328 325 326 328 330 329 325 320 319 320 319 319 319 318 318 317 318 319 317 318 317 317 317 317 318 318 318 317 316 315 315 315 315 315 315 314 314 313 313 312 312 311 310 309 308 308 307 306 304 303 303 303 304 304 304 304 304 304 303 303 303 303 303 303 302 302 302 302 302 303 303 303 303 303 303 303 302 302 302 302 302 302 302 302 302 302 302 302 302 302 302 302
321 322 322 327 332 328 324 327 327 327 328 324 318 319 319 319 319 319 319 318 317 319 319 318 318 317 317 317 318 318 318 318 318 316 316 315 315 314 314 314 314 314 313 312 312 311 311 310 309 308 308 307 306 304 303 303 303 304 304 303 303 304 303 303 303 303 303 303 303 303 303 303 303 303 303 304 304 304 304 303 303 303 302 302 301 301 301 301 301 301 301 301 301 301 301 301 301
321 321 322 325 329 327 325 327 324 323 329 326 318 319 319 318 319 319 319 319 319 318 319 318 317 318 317 318 318 318 318 318 317 317 316 315 315 314 314 314 314 314 313 312 312 311 311 310 309 308 308 307 306 304 304 303 303 303 303 304 303 303 304 304 303 304 304 304 304 304 304 304 304 304 304 304 304 304 304 304 303 303 302 302 301 300 300 300 300 300 300 300 300 300 300 300 300
320 321 322 324 326 325 326 328 325 324 328 323 317 319 318 318 319 319 319 318 319 318 319 318 317 318 317 317 318 317 318 317 317 316 316 315 314 314 314 314 314 314 313 313 312 312 311 310 309 308 308 307 306 305 304 304 304 304 304 304 303 304 304 303 304 304 304 304 304 304 304 304 304 304 305 305 305 305 305 305 304 303 303 302 302 301 300 300 300 299 299 300 299 299 300 300 300
320 321 324 326 327 325 329 330 324 325 328 321 316 318 318 318 318 318 318 318 318 318 318 318 317 318 317 317 317 317 318 318 317 316 315 315 315 314 314 314 314 314 313 313 312 312 311 311 309 308 308 307 307 306 305 305 304 304 304 304 304 304 304 304 304 304 304 304 304 304 304 304 304 304 305 305 305 305 305 305 304 304 304 303 303 302 301 300 300 299 299 299 299 299 299 299 299
321 326 325 324 326 325 329 328 320 322 324 319 316 317 317 318 318 317 318 317 317 317 317 318 317 317 317 317 316 317 317 318 317 317 316 315 314 314 314 314 314 314 314 313 313 313 312 311 310 309 308 308 307 307 306 305 305 305 304 304 304 304 304 304 304 304 304 304 304 304 304 305 304 304 304 304 305 304 305 305 304 305 304 304 304 304 303 301 300 300 299 299 299 299 299 299 299
322 329 325 325 330 326 323 322 318 319 319 318 317 317 317 318 317 317 318 317 316 317 317 317 317 317 317 317 316 316 316 317 317 316 316 316 315 315 315 314 314 314 314 314 314 313 313 312 311 310 309 308 308 307 307 306 305 305 305 304 304 304 304 304 304 304 304 304 304 305 305 304 304 304 304 304 304 304 304 304 304 305 305 305 305 305 304 303 302 301 300 299 299 299 299 299 299
321 324 327 331 330 322 320 319 318 318 318 317 317 317 317 317 317 316 317 317 316 317 316 315 316 317 317 316 316 316 316 316 316 316 316 315 315 315 315 314 314 314 314 314 314 313 313 312 312 311 309 308 308 308 307 307 306 305 305 304 304 304 304 304 304 304 304 304 304 304 304 304 304 304 304 304 304 304 304 304 304 304 304 304 305 304 304 304 303 302 301 300 299 299 299 299 299
321 321 326 328 322 319 321 319 318 318 318 318 317 317 316 316 317 316 316 317 317 316 316 316 316 317 317 316 316 316 315 315 315 315 315 315 315 315 314 314 314 314 314 314 313 313 313 313 312 311 310 308 307 308 307 307 306 305 305 304 304 303 303 303 304 304 304 304 304 304 304 304 303 304 304 303 304 304 304 304 304 304 304 304 304 304 304 304 303 303 302 301 300 299 299 299 299
321 320 320 320 318 320 321 318 318 318 317 317 316 316 316 316 317 316 316 317 318 316 317 317 317 317 317 316 316 316 315 315 315 315 315 315 315 315 314 314 314 313 313 313 313 313 313 313 312 312 310 308 307 307 307 307 306 305 305 304 303 303 303 303 303 304 304 304 304 304 304 303 303 303 303 303 303 303 303 303 303 303 304 303 304 304 303 303 303 303 302 301 300 299 299 298 298
322 321 318 318 319 319 320 319 318 317 317 316 316 316 316 316 316 316 316 316 317 317 317 317 317 317 317 317 316 316 316 316 316 316 316 315 315 315 315 315 314 314 313 313 313 313 313 313 312 312 311 309 308 307 307 307 306 306 305 304 303 303 303 303 303 303 304 304 304 304 303 303 303 303 303 303 303 303 303 303 303 303 303 303 303 303 303 303 303 302 301 300 299 298 298 298 297
322 322 318 318 319 318 319 318 317 317 317 316 316 315 315 315 316 316 316 316 317 317 317 317 317 317 317 317 316 316 317 317 317 317 317 317 316 315 315 315 314 314 314 313 313 313 313 313 312 312 311 309 308 307 307 307 306 306 305 304 303 303 302 303 303 303 303 303 303 303 303 303 303 303 303 303 302 302 303 303 303 303 303 303 303 303 303 303 302 302 301 299 298 298 298 297 297
320 321 318 317 318 318 318 317 317 317 316 317 316 314 314 315 316 314 315 316 317 317 317 317 316 316 316 316 317 317 317 317 317 317 317 316 316 316 315 314 314 314 314 313 313 313 313 312 312 312 311 310 309 308 307 307 306 306 305 304 303 302 302 302 302 303 303 303 303 303 303 303 303 303 303 303 302 302 302 302 302 302 302 302 302 302 302 302 302 301 300 299 298 297 297 297 297
318 318 317 316 316 317 317 317 316 316 316 316 315 314 314 314 314 314 315 316 316 316 316 316 316 316 316 316 316 316 316 317 317 316 317 316 316 315 315 314 314 313 314 313 313 313 313 312 312 312 312 311 309 308 307 306 306 306 306 305 303 302 302 302 302 302 303 303 303 303 303 303 303 303 302 302 302 302 302 302 302 302 302 302 302 302 302 302 302 301 300 299 298 298 297 297 297
317 316 316 315 315 316 316 316 316 316 315 315 315 315 314 314 314 315 316 316 316 316 316 316 316 316 316 316 316 316 316 316 316 316 316 316 315 315 315 314 314 314 313 313 313 313 312 312 312 312 311 310 309 308 307 307 306 306 306 305 304 302 301 301 302 302 302 303 303 303 303 302 302 302 302 302 302 302 302 302 302 302 302 302 302 301 302 302 301 301 300 299 298 298 297 297 297
316 315 316 316 315 315 316 315 315 315 315 315 315 315 313 313 314 314 316 316 315 316 316 316 316 316 316 316 316 316 316 316 316 316 316 316 316 315 315 315 314 314 313 314 313 313 312 312 312 312 311 310 310 309 307 306 306 306 305 304 304 303 302 301 302 302 302 302 302 303 303 302 302 302 302 302 302 302 302 302 302 301 301 301 301 301 301 301 301 300 300 299 298 297 297 296 296
316 316 316 317 315 315 315 315 315 314 315 315 314 315 315 314 314 315 316 316 315 315 316 316 316 316 316 316 316 316 316 316 316 315 316 316 316 316 316 315 315 314 314 314 313 313 312 312 312 311 311 310 309 309 308 307 306 306 305 305 304 304 302 301 301 301 302 302 302 302 302 302 302 302 302 302 302 302 302 302 301 301 301 301 300 300 300 300 300 300 299 298 297 296 296 296 296
316 315 316 317 316 317 316 315 316 314 314 315 314 316 318 316 314 315 317 316 315 314 315 315 316 316 316 316 316 316 316 316 316 316 316 316 316 316 316 315 315 314 314 313 313 313 312 312 311 311 310 310 309 309 308 307 306 305 305 304 304 304 302 301 301 301 301 301 302 302 302 302 301 301 301 301 302 302 301 301 301 301 300 300 300 300 300 300 300 300 299 298 297 296 295 296 296
316 315 316 318 317 319 317 314 315 315 314 314 315 316 317 317 315 315 316 316 315 314 314 315 315 316 316 317 316 316 316 316 316 316 316 316 316 315 316 315 314 314 313 312 313 313 312 312 311 311 310 310 309 308 308 307 306 305 305 304 304 304 302 301 301 301 301 301 301 301 301 301 301 301 301 301 301 301 301 301 301 301 300 300 300 299 300 300 299 299 298 298 297 295 295 295 295
317 316 319 321 319 318 318 314 313 316 315 312 315 317 315 316 316 316 316 315 315 313 314 315 315 316 316 316 316 316 316 316 316 316 316 315 315 315 315 315 314 314 313 313 312 312 311 311 311 310 310 309 309 308 308 307 306 305 304 304 304 303 302 302 301 300 300 301 301 301 301 301 301 301 301 301 301 301 301 301 301 300 300 300 299 299 299 299 299 298 298 298 296 295 295 294 295
320 317 319 321 320 317 318 318 313 313 315 312 314 317 317 317 315 315 316 315 314 313 314 315 315 316 316 316 316 316 316 316 316 316 316 315 315 315 314 314 314 314 313 313 312 312 311 311 310 310 310 310 309 308 307 307 306 305 304 304 303 303 302 301 301 300 300 300 300 300 300 300 300 300 300 301 301 301 300 300 300 300 300 299 299 299 299 298 298 298 297 297 296 295 294 294 295
320 318 318 318 319 316 318 322 314 311 315 314 314 314 316 317 315 314 316 316 314 313 314 315 316 316 316 316 316 316 316 316 316 316 316 315 315 314 314 314 314 314 313 312 312 311 311 311 310 310 310 309 308 307 307 306 306 305 304 303 302 302 302 301 300 300 300 300 300 300 300 300 300 300 300 300 300 300 300 300 300 300 299 299 299 299 298 298 298 298 297 296 294 293 293 294 295
319 321 320 319 318 316 317 320 315 313 315 315 314 313 313 314 313 313 314 315 314 313 315 315 316 316 317 317 316 316 316 316 316 316 316 315 315 315 314 314 313 313 313 312 311 311 310 310 309 309 309 308 308 307 306 306 305 304 303 302 301 301 301 300 300 300 299 300 299 300 299 300 300 300 300 300 300 300 300 300 300 299 299 299 299 298 298 298 298 297 297 295 294 293 293 294 295
318 319 319 318 317 316 315 316 316 315 315 315 314 314 313 313 313 312 313 313 313 313 315 315 315 316 316 316 316 316 315 316 316 316 316 315 315 315 314 314 313 313 313 312 311 310 310 310 309 309 309 308 307 306 306 305 304 303 302 301 301 301 301 300 300 300 299 299 299 299 299 299 299 299 299 300 300 300 300 299 299 299 299 299 298 298 298 297 297 297 296 295 294 293 293 294 294
316 316 317 317 316 315 315 316 317 314 315 317 316 315 314 314 314 313 312 313 312 311 311 312 313 315 315 315 315 315 316 316 317 316 315 315 315 314 314 314 313 313 312 312 311 310 310 309 309 309 309 309 308 307 307 306 305 304 303 303 303 302 301 301 300 300 299 299 299 299 299 299 299 299 299 299 299 299 299 299 299 299 299 299 298 298 298 297 297 296 295 294 294 293 293 293 294
315 316 316 316 316 316 315 316 318 315 315 316 316 315 314 313 314 313 313 313 312 311 311 312 312 313 314 314 314 315 316 316 316 316 315 315 315 314 314 313 313 313 312 312 311 310 310 309 309 309 309 309 309 308 308 307 307 306 306 306 305 304 302 302 302 301 300 299 299 299 299 299 299 299 299 299 299 299 299 299 299 299 298 298 298 298 297 297 296 295 294 294 293 293 293 292 292
316 316 316 317 317 317 315 317 318 314 315 318 318 315 314 313 313 313 312 312 312 313 313 314 314 313 313 314 314 315 316 316 315 315 315 315 315 314 314 313 313 313 312 312 311 310 309 309 309 309 309 309 309 308 308 307 307 306 306 305 305 304 303 302 302 301 300 299 298 298 298 298 299 299 299 299 299 299 299 299 298 298 298 298 298 298 297 297 296 295 294 293 292 292 292 292 291
317 317 317 317 316 316 315 317 319 315 315 320 319 315 313 313 313 313 313 312 313 314 314 315 315 315 315 315 315 315 315 315 315 315 315 315 315 314 314 314 313 312 312 311 311 310 310 309 309 309 309 309 308 308 307 307 306 305 304 304 303 302 302 301 300 299 299 298 298 298 298 298 298 298 298 298 298 298 298 298 298 298 298 298 297 297 297 296 296 294 293 292 292 292 292 292 291
316 317 317 316 316 317 315 316 318 317 317 318 316 315 315 315 314 314 314 314 313 313 314 314 314 315 315 315 315 316 315 315 315 315 315 315 315 314 314 314 313 312 312 311 311 310 310 310 309 309 309 309 308 308 307 306 305 304 303 302 301 300 299 299 299 299 298 298 297 298 298 298 298 298 298 298 298 298 298 298 298 298 298 297 297 297 297 296 296 294 293 292 292 291 291 291 291
315 317 318 317 317 317 316 317 316 318 322 318 315 318 319 319 318 315 315 316 315 313 313 313 313 314 315 314 316 316 316 315 315 315 315 315 315 315 314 314 313 313 312 312 311 310 310 310 309 309 309 309 308 307 307 306 305 304 304 303 302 300 300 299 299 300 299 299 298 298 298 297 298 297 297 298 298 298 298 298 298 297 297 297 297 297 297 296 296 294 293 292 291 291 291 291 291
316 320 323 319 318 319 318 319 318 322 326 318 315 320 320 319 320 318 316 317 317 315 315 314 312 313 314 315 316 317 316 315 315 315 315 315 315 315 314 314 314 313 313 312 311 310 310 309 309 309 309 308 308 307 307 306 305 305 304 304 303 303 302 302 301 301 300 300 299 298 298 297 297 297 297 297 297 298 298 298 297 297 297 297 297 297 297 296 296 294 293 292 292 291 290 290 290
317 323 328 324 321 321 320 320 322 324 324 317 316 320 319 318 318 318 317 317 318 317 317 315 312 312 314 317 317 317 317 316 315 315 315 316 315 315 314 315 314 313 312 311 310 310 309 309 309 308 308 308 308 307 307 306 306 305 304 303 303 303 303 303 302 301 300 300 298 298 297 297 297 297 297 297 297 297 297 297 297 297 297 297 297 297 296 296 296 295 294 292 291 291 290 290 290
319 321 325 324 322 322 321 320 322 323 320 318 318 318 319 318 317 317 316 316 317 316 315 316 313 312 314 317 317 316 316 316 315 315 315 315 315 315 315 315 314 313 312 311 311 310 309 309 309 308 308 308 307 307 307 306 306 305 304 303 303 302 302 301 300 300 300 299 298 297 297 297 297 296 297 297 297 297 297 297 297 297 297 296 296 296 296 296 296 295 293 292 291 291 290 290 289
318 318 323 325 325 323 320 318 319 321 319 318 319 318 318 318 316 318 316 315 317 315 315 316 313 313 314 316 317 316 316 316 315 314 314 315 315 315 315 314 314 313 312 311 310 310 309 309 308 308 308 308 308 307 307 307 306 306 305 304 303 302 301 300 299 299 299 299 298 297 297 296 296 296 296 297 297 297 297 297 296 297 296 296 296 296 296 296 295 294 293 292 291 290 290 289 289
315 318 322 326 328 325 324 323 321 320 318 318 320 318 316 317 317 318 317 316 317 316 315 315 313 312 313 315 316 316 317 316 315 314 314 315 315 315 315 314 313 312 311 311 310 309 309 309 309 308 308 308 307 307 307 307 307 307 306 305 304 303 301 300 299 299 298 298 298 297 297 297 296 296 296 296 296 296 296 296 296 296 296 296 296 296 296 296 295 294 293 292 291 290 289 289 289
316 323 323 323 327 326 324 323 319 318 318 318 320 319 316 317 317 317 317 316 316 316 316 317 317 314 313 315 316 316 317 316 315 314 314 315 315 314 314 313 313 312 311 311 310 310 309 309 309 309 309 308 308 308 308 308 308 308 307 306 305 303 302 301 300 300 299 299 298 297 297 296 296 296 296 296 296 296 296 296 296 296 296 296 296 296 296 295 295 294 293 292 291 290 289 289 289
317 323 321 320 322 322 320 321 320 319 319 317 317 317 316 316 316 316 316 317 317 316 315 316 317 314 313 316 317 317 317 316 315 314 314 315 315 314 314 313 313 312 312 311 311 310 310 309 309 309 309 309 309 308 308 308 308 308 308 307 306 304 302 302 301 300 300 299 299 298 297 297 296 296 296 296 296 296 296 296 296 296 296 295 295 295 295 295 294 293 292 292 291 290 289 289 288
316 318 320 320 320 319 320 324 323 318 319 319 316 316 317 317 318 319 317 316 317 315 313 313 314 314 315 317 317 316 316 316 315 315 314 315 315 314 314 314 313 312 312 312 312 311 311 310 310 310 310 309 309 309 309 309 309 309 308 307 306 304 303 302 301 300 300 299 298 298 298 297 297 297 296 296 296 296 296 296 295 295 295 295 295 295 295 294 294 293 292 292 290 289 289 288 288
314 317 319 318 323 326 322 323 322 318 324 324 315 317 321 317 319 323 319 315 313 312 313 314 314 315 316 316 316 316 316 315 315 314 315 315 315 314 314 314 313 313 313 313 313 312 311 311 311 310 310 310 310 310 309 310 310 309 308 307 306 306 304 303 301 301 300 299 298 298 298 297 297 297 296 296 296 295 295 295 295 295 295 295 295 295 294 294 293 293 292 291 290 289 288 288 288
315 317 319 316 321 325 318 319 320 317 322 321 315 320 324 317 316 319 317 315 313 312 312 312 312 314 315 314 315 315 315 315 315 315 315 315 315 315 314 314 313 313 313 313 313 313 312 312 312 311 311 311 311 310 310 310 310 309 308 307 306 306 305 303 302 301 300 299 298 298 298 297 297 296 296 295 295 295 295 295 295 295 294 294 294 294 294 293 293 293 292 290 289 288 288 288 288
316 316 317 315 318 320 317 321 321 316 317 318 316 320 320 316 316 316 315 315 315 314 313 311 310 312 313 312 314 315 314 315 315 316 316 315 315 315 314 314 313 312 313 313 314 313 313 312 312 312 311 310 310 310 310 309 309 309 308 307 306 306 306 306 304 302 300 299 298 297 297 296 296 295 295 295 294 294 294 294 294 294 294 294 294 294 294 293 293 292 291 290 289 288 288 288 287
317 318 317 316 317 319 320 323 322 319 318 318 317 317 316 316 317 318 318 317 316 316 316 314 311 310 310 311 313 314 315 315 316 316 316 315 315 314 314 313 313 313 313 313 313 313 313 312 312 312 311 311 311 310 309 309 309 309 309 307 306 306 306 306 305 303 301 299 298 297 296 296 295 295 294 294 294 294 294 294 294 294 294 294 294 294 293 293 292 292 291 289 288 288 288 287 287
314 317 317 317 320 321 320 320 320 319 318 318 317 317 316 315 316 316 317 317 317 317 316 315 314 311 310 310 312 313 315 316 316 316 316 315 315 314 313 313 313 313 313 313 313 313 312 312 312 312 311 311 310 309 309 308 308 309 309 308 307 306 305 304 304 303 301 300 299 298 297 296 295 294 294 294 294 293 294 294 294 294 294 294 294 293 293 293 292 291 290 289 288 288 287 287 287
311 313 315 315 318 321 321 319 318 318 317 317 318 317 317 317 317 316 316 316 317 316 314 314 314 311 310 311 311 313 315 316 316 315 315 314 314 314 313 313 313 312 312 312 313 313 312 312 312 311 311 310 309 308 308 308 308 309 309 308 307 306 304 303 303 303 303 301 299 298 297 296 295 294 293 293 293 293 293 293 293 293 293 293 293 293 293 292 292 291 290 288 288 288 287 287 286
313 314 316 314 313 317 319 317 317 318 316 316 317 317 316 316 317 316 315 317 318 316 315 315 313 310 311 312 312 312 314 315 315 315 314 314 314 314 313 313 312 312 312 312 312 312 312 311 311 311 311 310 309 308 308 308 308 308 308 308 307 306 304 303 301 301 302 301 300 299 298 296 295 294 294 293 293 293 293 293 293 293 293 293 293 293 293 292 291 290 289 288 288 287 287 287 286
315 315 316 315 314 315 316 315 316 316 315 316 316 316 316 315 316 315 313 317 320 317 317 317 312 309 311 313 312 313 313 314 315 314 314 314 314 313 313 312 312 312 312 312 312 312 311 311 311 311 310 310 309 309 308 308 308 307 308 308 307 305 304 303 301 300 300 301 301 300 298 296 295 294 294 293 293 292 292 293 293 293 293 293 292 292 292 291 290 289 288 288 287 287 287 286 286
Wind_Speed
4 4 4 3 2 1 1 3 1 2 2 2 4 1 3 3 2 2 2 2 3 3 7 7 5 7 7 6 9 10 6 3 4 3 4 4 9 20 21 19 17 16 16 16 15 13 12 11 10 8 7 8 7 6 6 5 5 4 4 4 4 4 4 5 5 5 6 6 6 5 6 6 6 7 7 7 7 7 6 5 5 5 5 5 4 4 4 4 4 4 3 3 5 6 7 7 8
4 4 5 4 3 2 2 2 1 2 3 3 5 3 4 2 2 2 4 3 4 6 8 8 8 9 9 9 12 7 5 4 3 3 4 7 15 22 20 18 17 16 16 14 13 11 10 9 8 8 8 7 6 6 5 5 5 5 5 4 4 4 4 5 5 5 6 6 6 6 7 7 8 8 8 8 7 8 8 7 7 7 7 6 5 5 6 6 5 5 6 7 8 8 9 9 9
4 5 6 5 4 2 3 2 2 0 2 3 5 4 2 3 2 2 3 5 9 11 9 7 7 6 5 6 6 1 2 5 5 5 6 12 17 22 21 18 17 16 14 13 12 11 10 9 9 8 8 7 6 6 5 5 5 5 4 4 3 3 4 4 4 4 5 5 6 6 7 7 8 8 8 8 8 8 9 9 9 9 9 9 8 8 8 8 8 9 10 10 10 10 11 11 11
5 5 6 4 4 3 2 2 2 3 1 4 3 5 3 5 6 4 6 9 10 9 7 6 4 3 2 3 4 2 5 7 7 5 6 13 15 18 21 19 18 16 13 13 12 11 10 10 9 9 8 8 7 6 7 6 6 6 5 5 4 4 4 4 4 4 4 4 5 5 6 7 7 7 7 7 7 7 8 8 8 8 9 9 10 9 10 10 10 11 12 11 10 11 11 11 12
6 5 4 4 3 2 2 1 0 2 3 4 2 6 5 7 7 5 7 8 7 6 8 8 3 2 2 3 4 2 6 8 7 6 7 13 16 18 21 20 19 16 15 14 13 12 11 11 10 9 9 9 9 8 8 7 7 6 6 5 4 4 4 4 3 3 3 3 3 4 4 5 5 5 5 5 5 5 6 6 6 6 7 8 9 9 10 10 11 12 12 12 12 12 12 13 13
6 6 5 4 2 0 2 1 2 2 6 5 3 5 5 7 9 9 8 8 6 6 8 9 5 5 3 3 5 5 8 7 5 7 8 12 17 19 20 20 20 17 16 14 13 13 12 11 11 10 10 10 9 9 8 7 6 5 5 4 3 3 2 2 2 2 2 2 2 3 3 3 4 4 4 4 4 4 4 5 5 5 5 6 6 7 8 9 10 11 12 12 13 13 14 14 15
4 5 4 3 1 0 2 3 4 4 6 5 5 4 6 8 14 14 9 6 4 5 8 7 8 7 2 4 5 7 10 7 5 5 7 11 15 19 21 21 20 17 16 15 14 14 13 12 12 11 10 10 9 8 7 6 5 4 3 2 2 1 1 1 0 1 1 1 1 1 2 2 3 3 4 4 4 4 5 5 5 5 5 6 6 6 7 7 8 9 10 10 11 12 13 14 14
4 4 3 2 1 2 2 4 5 4 5 4 4 5 10 14 18 14 7 5 4 6 8 8 10 5 2 6 5 8 12 10 9 6 6 10 14 18 20 21 20 17 17 16 16 15 14 12 11 10 10 9 8 7 6 5 5 4 3 3 2 1 1 1 1 1 1 1 1 1 1 1 1 2 2 2 2 2 3 3 3 4 4 5 5 6 6 7 7 7 8 8 9 10 11 12 13
4 2 2 2 1 1 2 4 4 4 6 5 2 5 14 19 18 11 6 5 5 8 10 12 12 5 3 8 6 9 13 11 11 10 9 10 13 16 19 21 19 17 18 17 16 14 12 10 10 10 10 9 8 7 6 6 5 5 4 4 3 2 2 2 2 2 2 2 2 2 2 2 2 2 2 2 2 2 2 2 2 2 2 3 4 4 4 5 6 6 6 7 7 8 9 10 11
3 1 1 2 2 1 4 3 4 4 6 6 5 8 15 18 14 11 9 5 6 9 11 13 11 6 5 7 7 9 12 12 11 11 11 11 13 16 18 20 18 17 18 17 15 13 11 9 9 10 10 9 9 9 8 8 7 6 5 4 4 3 3 3 3 3 3 3 3 3 3 3 3 3 3 3 3 3 3 3 3 3 3 3 3 3 4 4 5 5 6 6 6 6 7 7 8
2 1 1 2 1 2 4 4 4 5 5 3 4 9 14 15 11 9 10 6 8 10 12 13 7 9 6 4 7 8 10 11 11 10 11 12 14 15 17 19 18 18 17 16 14 12 10 9 10 10 10 10 10 10 9 9 7 7 5 5 4 3 3 3 4 4 4 4 4 4 4 4 4 4 4 4 4 3 3 3 3 3 2 2 2 3 3 4 5 5 6 7 7 7 7 7 7
0 1 2 2 2 4 4 3 5 6 6 3 3 7 10 12 9 7 9 7 10 11 14 16 6 8 6 3 7 9 11 11 11 11 11 13 14 16 18 18 18 18 17 16 15 13 11 10 11 12 12 11 11 11 10 9 8 7 6 5 4 4 4 4 4 5 5 5 4 4 4 4 4 4 4 4 4 4 3 3 3 3 3 2 2 2 3 3 4 5 6 6 7 7 7 8 8
1 0 4 1 3 3 3 4 5 5 5 3 3 5 8 9 7 8 9 9 13 11 11 17 9 7 6 3 7 12 14 13 13 13 13 14 15 17 18 19 19 19 18 17 16 14 12 12 13 13 13 12 12 11 10 9 8 6 5 4 4 4 4 4 5 5 5 5 5 5 5 5 5 5 5 5 5 4 4 4 4 4 4 4 4 3 3 3 3 3 4 4 5 6 6 7 7
2 2 2 2 2 1 3 3 5 4 4 4 2 6 8 6 6 9 8 6 12 12 8 15 13 8 6 5 8 15 15 14 15 14 14 15 16 18 18 20 20 20 19 19 17 16 15 14 15 15 14 13 12 11 10 9 8 6 5 4 3 3 4 4 4 5 5 5 5 5 5 5 5 5 5 5 5 6 6 6 6 6 6 6 6 6 6 5 5 5 4 4 4 5 5 6 6
4 5 1 1 3 3 3 3 5 4 4 4 5 8 7 4 5 8 8 5 9 12 6 12 17 7 6 9 10 15 14 14 16 15 16 17 18 19 20 21 21 21 21 20 19 18 17 16 17 17 15 14 13 12 11 9 8 6 5 3 3 3 3 3 3 3 3 3 3 4 4 4 4 4 5 5 6 7 7 8 8 9 9 10 10 10 10 9 9 8 8 7 6 6 6 6 6
5 4 2 1 3 2 3 3 3 4 5 4 7 7 4 4 6 7 8 7 6 10 10 14 19 11 7 12 12 11 11 13 15 16 18 18 19 20 21 22 23 23 22 22 22 21 19 18 18 18 17 15 14 13 12 10 9 7 6 4 3 3 2 2 2 1 1 1 1 2 3 2 3 3 4 5 6 7 8 9 10 10 11 12 12 12 11 11 11 10 10 9 9 8 7 7 6
4 0 2 2 3 2 3 3 2 3 5 4 6 7 4 3 7 8 8 9 7 9 13 13 17 17 13 13 12 11 11 12 15 17 18 19 20 21 22 24 24 25 24 24 24 23 22 20 20 19 18 17 15 14 13 12 10 9 8 6 5 4 4 3 3 2 2 1 1 0 0 1 2 3 4 6 7 8 9 9 10 11 11 12 12 12 12 12 11 11 10 10 9 9 8 8 7
3 2 2 3 3 4 5 5 4 3 2 4 7 9 6 3 6 9 7 9 11 10 14 14 14 18 18 18 16 15 14 15 17 18 19 19 20 21 22 24 25 25 25 26 26 25 24 23 22 21 20 18 17 16 15 14 12 12 10 9 8 7 6 6 5 5 5 4 3 3 3 3 2 3 4 5 6 7 7 8 9 9 10 10 11 11 11 12 12 11 11 10 10 9 9 8 8
6 3 2 4 5 5 5 5 5 1 2 6 7 9 9 6 6 7 5 7 10 10 13 15 16 18 20 21 20 19 19 19 21 21 21 22 22 22 22 23 25 26 26 25 25 25 25 25 24 23 21 20 20 18 17 16 15 14 13 12 11 9 9 8 8 7 7 6 6 6 5 5 4 3 3 4 4 5 5 6 7 7 8 8 9 9 10 11 11 11 11 11 10 10 9 9 8
8 5 2 7 7 6 10 9 5 3 3 4 2 6 9 9 8 7 6 7 7 10 14 15 18 23 23 24 23 22 23 23 24 25 26 26 25 24 23 24 25 25 24 23 24 25 26 26 26 25 23 22 22 21 20 19 18 17 15 14 13 12 11 10 9 9 8 8 7 7 6 6 5 5 4 4 4 4 5 5 6 6 7 7 8 8 9 10 11 11 11 11 11 10 10 10 9
6 7 5 7 5 4 12 11 5 5 4 4 3 3 6 9 10 9 7 4 5 14 23 22 24 28 28 28 27 26 26 26 28 28 29 29 28 27 26 25 24 23 23 24 26 27 27 27 27 26 25 25 24 24 22 21 20 19 18 16 15 14 13 13 11 11 10 9 8 8 7 7 6 6 5 5 5 5 5 6 6 7 7 7 8 9 9 10 11 11 11 11 11 11 11 10 10
4 8 13 14 8 5 12 13 8 8 6 5 5 3 7 7 10 14 12 7 11 20 23 21 22 25 27 29 28 29 29 29 30 30 31 31 31 30 28 27 25 25 26 28 28 27 27 27 28 28 27 27 27 26 24 23 22 21 20 19 17 17 16 15 14 13 12 11 10 9 9 8 8 7 6 6 6 6 6 7 7 8 8 9 9 9 10 10 11 11 11 11 11 11 11 11 11
7 8 13 18 17 10 16 17 12 12 8 6 6 6 9 7 10 17 20 22 27 28 20 13 12 15 22 28 30 31 31 31 31 30 30 30 29 29 28 27 27 27 28 28 28 28 28 29 29 29 29 28 28 28 26 25 24 23 22 20 19 18 18 17 16 14 13 13 12 11 11 10 10 9 8 8 7 7 7 8 8 8 9 10 10 10 11 11 11 11 11 11 11 11 10 10 11
12 7 8 15 19 16 20 19 15 14 11 12 10 9 10 10 10 12 22 33 35 31 26 20 16 14 16 24 32 33 33 32 31 29 28 27 26 25 25 25 26 27 28 28 29 29 29 29 30 30 30 30 30 30 29 27 26 24 24 22 21 20 19 19 17 16 15 14 13 13 12 12 11 11 10 9 9 9 8 9 9 9 10 10 10 10 11 11 11 11 11 11 10 10 9 10 10
11 8 8 11 14 16 18 16 16 16 15 16 12 11 16 18 13 12 27 38 34 31 30 28 25 23 21 22 28 32 34 34 32 31 30 29 28 26 26 27 27 29 30 30 30 30 29 30 30 31 31 31 32 31 30 29 27 26 25 24 23 22 21 20 19 18 17 16 15 14 13 13 13 12 11 11 10 10 9 9 9 10 10 11 11 11 11 11 11 11 11 11 10 10 10 9 9
8 10 10 9 12 16 17 17 19 18 18 16 10 13 20 22 14 16 37 42 35 34 32 30 27 28 30 28 28 30 32 33 33 33 32 31 30 30 30 30 32 32 32 30 31 31 30 30 31 31 31 32 33 33 32 30 29 28 27 26 24 23 22 22 21 19 18 18 17 16 15 15 14 13 12 11 11 10 10 10 10 10 11 11 12 11 11 11 11 11 11 10 11 11 10 10 10
6 9 11 13 16 19 20 21 24 21 18 17 12 11 17 17 7 12 37 37 25 28 30 31 29 29 32 33 33 32 33 34 35 34 34 34 34 34 34 33 35 35 33 33 32 32 31 31 31 30 31 33 34 34 33 32 31 29 28 27 26 25 24 23 23 21 20 19 18 18 17 16 15 14 13 12 11 11 10 10 10 11 11 12 11 11 11 11 11 11 11 11 11 11 11 11 11
7 9 11 17 16 19 22 20 25 18 13 20 17 9 13 9 5 19 42 34 17 18 22 25 28 32 33 33 35 34 36 36 35 35 36 37 37 37 37 37 37 36 36 35 33 33 33 33 32 31 31 33 35 35 34 34 32 30 29 28 27 26 25 25 24 23 22 21 20 19 18 17 16 15 14 13 12 11 11 11 11 11 11 12 11 11 10 10 11 11 12 12 12 12 12 12 12
10 7 6 14 9 12 23 20 23 16 8 16 13 3 12 7 13 34 46 36 24 21 21 23 25 30 34 35 37 36 37 36 35 37 37 37 36 37 37 37 37 37 37 35 35 35 34 34 33 32 31 33 35 36 35 35 33 32 31 30 28 28 27 27 26 24 24 23 22 21 20 19 17 16 15 14 14 12 12 11 11 11 11 11 11 10 10 10 11 11 12 12 12 12 12 13 13
10 4 2 9 6 8 17 14 18 14 8 14 14 1 11 9 21 38 38 34 30 26 28 29 27 28 31 34 37 38 38 36 37 37 35 35 36 36 36 36 37 38 38 37 37 36 35 35 34 33 32 33 34 36 36 36 35 34 33 31 30 29 28 28 27 26 25 25 23 22 21 20 18 18 16 15 15 13 12 12 11 11 11 11 11 11 10 10 10 11 11 12 12 13 14 14 14
5 2 1 4 3 7 11 6 7 6 6 18 16 3 11 11 20 30 28 27 27 26 31 32 30 31 30 32 35 37 38 36 37 37 36 36 36 36 36 36 38 38 39 39 38 36 36 36 35 34 33 33 34 35 37 37 36 35 34 33 31 30 30 29 28 27 27 26 25 24 22 21 20 19 17 16 16 14 13 12 12 12 12 12 12 11 11 10 10 11 12 12 13 13 14 16 17
1 1 5 3 4 7 10 8 8 7 5 16 14 3 11 14 20 29 28 24 24 26 31 32 31 33 32 33 35 36 37 36 37 39 39 39 38 37 36 37 38 39 39 39 38 38 38 38 36 35 34 33 33 34 37 37 37 37 35 34 32 31 31 30 30 29 28 27 26 25 24 22 21 20 19 18 17 16 14 13 12 12 12 12 12 12 11 11 11 11 12 13 13 14 16 17 18
2 4 6 5 6 5 7 8 7 10 6 10 11 5 8 10 13 20 19 19 24 25 27 30 31 33 34 35 36 37 38 38 40 41 42 42 41 38 36 36 38 39 39 39 40 39 39 39 37 36 35 33 33 33 36 37 38 38 36 35 34 33 32 32 31 30 30 29 28 26 25 23 22 21 20 19 18 17 15 14 13 12 13 13 13 13 12 11 11 11 13 14 15 17 18 19 20
4 3 5 6 7 5 5 7 2 8 8 8 11 8 11 12 10 14 13 12 18 23 26 30 31 32 33 35 37 39 39 39 42 44 44 43 41 38 37 36 37 38 39 40 40 40 39 39 38 37 35 34 33 33 35 37 38 38 37 36 35 34 34 33 32 32 31 30 29 28 26 25 24 23 21 20 19 18 16 14 13 13 13 13 13 13 13 12 12 12 13 14 16 18 20 21 22
5 5 4 5 7 6 9 8 2 8 7 7 9 8 15 18 14 20 27 21 15 21 26 29 31 32 33 35 38 40 40 42 46 47 44 42 40 38 37 36 36 38 40 40 40 40 40 40 39 37 36 35 34 33 34 36 38 39 39 38 37 36 36 35 34 34 33 32 31 29 28 26 25 24 23 22 20 19 17 15 15 14 14 14 14 14 13 13 13 12 13 14 16 18 20 22 23
7 7 6 6 7 7 11 11 6 9 6 6 10 12 15 19 18 20 31 31 22 22 25 26 29 32 34 37 39 40 41 45 49 47 44 41 40 38 37 36 36 38 39 40 41 41 42 41 41 39 37 36 35 35 36 38 40 41 41 41 40 39 38 37 36 35 34 33 32 31 29 28 27 26 24 23 22 20 19 17 15 15 14 14 14 14 14 13 13 12 13 14 15 16 19 21 23
8 8 8 10 8 10 12 11 7 9 6 7 13 15 15 18 19 17 25 27 19 21 23 24 29 33 37 39 39 41 43 49 50 46 43 39 38 38 37 36 36 38 40 41 42 42 43 43 42 39 37 37 38 38 38 39 41 42 43 43 43 42 40 39 38 37 36 35 34 33 31 30 28 27 26 24 23 22 20 18 17 16 15 14 14 15 14 14 13 13 13 14 15 17 18 20 22
10 9 10 10 7 12 14 9 7 7 5 8 11 14 16 16 18 17 19 16 13 20 22 24 31 34 38 39 40 43 46 50 47 43 42 37 35 37 37 37 37 39 40 41 43 43 43 42 41 39 38 39 39 39 39 39 40 41 41 42 42 42 41 41 39 38 37 36 36 34 33 31 29 28 27 26 25 23 21 19 17 16 15 14 14 15 15 14 14 13 14 14 16 17 18 20 22
9 8 8 8 6 10 12 8 7 4 5 7 9 11 13 14 17 16 15 13 16 27 28 31 36 33 34 37 40 44 46 46 44 42 40 36 34 35 36 36 37 39 39 40 42 42 43 42 41 40 39 40 40 40 39 39 39 40 40 40 40 40 41 41 39 38 37 38 37 36 34 32 31 30 29 28 26 24 22 20 18 17 16 15 15 15 15 15 15 14 15 16 17 18 18 19 21
8 9 8 9 6 7 10 6 4 3 4 5 6 9 8 8 12 14 19 22 23 30 34 37 41 37 38 41 41 43 43 42 42 40 37 34 33 34 35 36 37 38 39 41 43 43 43 42 41 41 40 40 40 40 39 39 39 39 40 40 40 39 39 39 39 39 39 39 38 38 36 34 33 32 31 29 27 25 23 21 19 18 16 15 15 15 16 15 15 15 16 17 18 18 19 19 19
10 10 9 10 10 10 12 7 4 3 4 5 5 9 7 8 13 14 17 21 22 26 30 33 40 42 44 46 45 46 46 44 42 39 35 33 33 34 35 35 36 38 40 41 43 43 42 41 40 40 40 40 39 39 40 40 40 41 41 42 41 41 40 40 41 42 42 42 41 39 38 36 34 33 32 30 28 26 24 22 20 19 17 16 16 16 16 16 16 15 16 18 19 19 20 20 20
11 9 11 14 13 13 13 9 6 5 6 4 3 7 8 8 14 16 11 10 12 16 19 24 34 40 41 44 47 49 48 44 42 40 36 33 33 34 34 35 37 38 39 40 41 40 39 39 39 39 40 39 39 39 40 40 41 42 43 44 45 45 45 46 46 46 45 43 42 41 39 37 36 35 33 31 29 27 25 23 21 20 18 17 16 16 16 17 16 16 17 18 19 20 20 20 20
10 6 11 14 11 10 11 7 3 4 6 3 3 3 8 5 8 12 8 7 10 11 11 16 26 33 36 40 45 46 43 40 38 36 34 33 34 35 35 35 36 37 38 38 38 38 38 38 38 39 39 39 39 39 39 40 41 42 44 45 45 46 47 48 47 46 44 42 41 40 39 38 37 36 34 32 30 28 26 24 22 21 19 18 17 16 17 17 17 17 17 18 20 21 21 21 21
7 4 8 9 8 9 8 5 5 4 4 3 2 3 7 12 7 10 10 10 11 13 12 13 18 26 33 38 42 42 40 38 34 32 32 33 35 36 36 34 34 34 35 37 37 37 38 37 37 38 39 39 38 38 38 38 39 40 42 44 45 46 47 46 45 44 42 42 41 41 40 39 38 37 35 33 31 30 28 26 24 22 20 19 17 17 17 18 17 17 17 18 20 21 22 22 21
6 3 5 5 5 5 1 2 4 2 4 4 4 5 4 14 7 9 11 11 11 15 16 13 15 24 33 38 41 41 39 37 34 32 31 33 35 35 33 32 31 32 34 35 35 36 37 37 37 38 39 39 38 37 37 36 36 38 40 42 44 45 46 45 45 43 42 42 42 41 41 40 39 38 36 35 33 31 29 27 25 23 21 19 18 18 18 18 18 18 18 19 20 21 22 22 22
4 5 4 4 3 3 5 2 1 3 5 6 6 7 3 15 9 6 6 8 10 13 13 13 15 24 33 37 41 41 39 37 35 32 30 31 33 31 30 30 30 31 32 33 34 35 36 37 38 38 38 38 37 36 35 34 34 36 38 41 42 43 45 45 45 44 43 42 42 42 42 41 40 39 38 36 34 33 30 28 26 24 22 20 19 19 19 19 18 18 18 19 21 21 22 22 22
3 6 5 6 5 5 4 2 4 2 9 6 10 11 8 11 9 5 5 5 10 11 8 10 13 20 30 36 39 40 38 37 35 31 29 29 29 28 28 29 29 31 31 33 35 36 37 37 38 38 38 37 36 36 34 33 33 34 35 38 41 42 44 45 45 45 45 44 44 43 43 42 41 39 38 37 35 34 32 30 27 25 23 21 20 19 19 20 19 19 19 20 21 22 22 22 23
4 5 4 3 5 4 5 4 4 2 10 5 12 14 12 11 7 2 3 3 7 9 8 10 11 16 28 34 36 35 32 33 33 30 29 28 27 28 29 29 30 31 32 34 36 37 37 38 38 38 38 37 37 36 35 34 34 33 33 36 39 41 43 44 45 46 46 46 45 45 44 43 42 41 40 39 37 35 33 31 29 26 24 22 21 20 20 20 20 19 20 21 22 23 23 23 23
5 4 5 1 4 3 3 3 0 4 8 5 9 9 9 13 7 3 9 6 5 8 9 13 13 16 28 32 32 31 28 29 31 30 29 28 28 29 29 29 31 31 32 34 36 37 38 38 39 39 38 37 38 38 36 35 34 32 31 32 36 40 42 43 45 45 46 46 46 46 46 45 44 43 42 41 39 37 35 32 30 27 25 23 22 21 21 21 20 20 21 21 23 23 23 24 24
7 6 6 5 3 1 2 4 3 5 7 5 5 6 5 8 4 8 14 13 13 14 16 22 22 23 31 31 28 27 26 28 30 30 29 29 30 30 28 28 30 30 31 34 36 37 38 38 39 39 38 38 39 39 38 36 35 33 31 30 33 38 40 42 43 45 45 46 46 47 46 46 45 44 43 41 39 38 35 33 30 27 25 24 23 22 21 21 21 21 21 22 23 23 23 24 24
7 6 6 6 5 5 4 5 6 6 6 6 3 5 4 4 2 8 11 11 13 17 24 29 30 30 32 31 28 25 26 28 29 29 29 29 30 30 28 28 29 29 31 34 36 37 38 39 39 39 39 39 39 40 39 37 35 34 34 32 32 34 38 40 42 44 45 45 46 47 46 45 45 44 42 40 39 38 35 33 31 28 26 24 23 22 22 21 21 21 22 23 23 24 24 24 24
4 4 4 3 5 7 5 5 6 2 4 6 3 5 6 4 6 8 8 10 10 13 21 22 24 30 30 29 31 30 28 28 27 28 28 29 30 29 29 28 28 29 31 34 37 38 38 39 39 39 38 38 38 39 39 38 36 36 36 35 33 33 35 38 41 43 45 45 46 46 45 44 43 42 41 40 39 38 35 33 31 28 26 25 24 23 22 22 22 22 22 24 24 24 24 24 24
2 3 4 4 3 6 4 5 2 2 4 8 4 5 6 6 8 8 7 11 9 8 11 11 18 28 27 28 33 32 27 26 27 28 27 27 28 29 29 28 27 28 30 34 36 38 39 39 40 39 40 40 40 40 39 38 38 38 38 38 37 35 33 34 38 41 43 44 45 45 44 43 43 42 41 40 39 38 36 34 31 29 27 26 24 23 23 23 22 22 23 24 24 24 25 25 24
6 4 6 2 3 2 3 1 2 1 6 8 6 9 8 6 8 4 4 4 7 8 10 10 16 23 22 27 33 29 25 25 26 27 26 26 26 28 29 28 26 25 28 32 34 36 38 40 40 40 41 42 40 38 38 38 39 39 38 39 39 38 35 34 36 39 41 43 44 44 43 43 43 42 41 41 40 39 36 34 32 30 28 26 25 24 23 23 23 23 24 25 25 25 26 25 24
5 3 2 3 1 2 2 3 3 5 7 8 10 14 10 7 9 6 4 7 9 10 12 13 14 15 18 26 30 25 23 25 26 27 26 25 27 28 28 27 24 24 27 32 34 36 38 39 41 41 42 43 40 38 38 38 39 39 39 40 40 41 40 38 37 38 40 42 43 43 43 43 43 43 43 42 41 39 37 34 32 30 29 27 26 24 24 24 24 24 25 25 25 25 26 25 23
1 2 3 1 2 4 3 3 3 5 9 8 10 12 10 8 6 5 7 10 9 10 11 11 11 14 20 27 28 27 26 26 27 27 27 27 29 29 27 26 23 23 27 32 35 36 35 38 42 44 44 45 44 42 40 38 37 38 40 42 43 43 43 43 41 39 40 41 42 42 43 43 44 45 44 43 42 40 37 35 33 31 29 27 26 25 25 25 25 25 25 25 25 26 26 25 23
3 2 3 3 2 2 1 2 2 4 8 7 8 10 10 8 3 1 5 7 8 9 10 10 11 17 25 29 30 31 29 28 28 28 28 30 32 30 28 26 23 25 29 32 35 35 34 37 43 46 46 46 46 45 42 39 37 37 40 44 45 45 45 45 45 43 41 40 41 41 42 43 44 45 45 45 43 40 38 36 34 32 30 28 27 26 26 26 25 25 26 25 25 26 25 25 23
8 7 7 6 6 3 2 6 5 4 5 6 8 9 10 9 3 1 3 3 5 8 8 9 12 20 28 31 31 32 30 30 29 28 29 33 33 29 26 25 24 26 30 32 34 35 35 37 41 45 48 47 46 45 43 40 38 37 38 42 46 48 47 47 47 46 44 41 40 41 42 43 44 45 46 45 43 41 39 37 34 32 31 29 28 27 26 26 25 26 25 25 25 26 25 24 24
Wind_Direction
219 223 226 207 224 173 55 19 358 319 68 271 272 231 260 245 195 85 107 118 109 71 89 104 87 91 91 104 132 120 92 142 171 138 186 208 175 180 178 182 187 184 187 188 189 193 198 204 208 209 211 207 199 194 198 208 210 210 213 217 217 218 223 231 235 242 252 259 264 268 273 274 281 284 289 294 297 305 308 310 316 320 325 335 338 339 352 344 346 9 9 2 357 353 349 345 351
194 196 210 194 171 103 14 45 71 334 41 300 281 201 235 324 43 106 176 162 131 134 117 109 97 93 90 113 134 118 65 104 168 171 169 167 169 177 181 185 188 190 184 179 184 185 191 196 196 196 197 197 187 179 184 197 203 203 208 205 200 198 203 218 228 230 236 243 245 247 253 259 264 267 271 272 273 274 276 278 282 288 291 289 288 288 297 301 299 307 306 314 322 322 322 324 329
170 184 198 178 135 46 346 56 110 51 49 274 275 247 213 67 124 149 146 138 131 137 131 122 112 103 92 110 129 160 144 131 160 174 167 164 169 177 182 186 188 193 180 169 179 182 188 193 195 193 193 196 187 184 190 202 210 210 215 215 209 199 201 214 220 218 222 229 235 239 244 250 253 260 266 267 267 266 266 268 271 274 276 276 275 273 275 278 279 284 289 300 307 308 310 311 312
156 179 191 158 103 37 29 76 160 155 225 242 265 275 200 141 174 152 115 125 132 138 136 126 106 112 111 116 117 105 152 164 173 174 173 162 169 181 180 184 192 194 178 170 182 184 191 197 201 202 204 206 200 199 202 209 215 217 218 219 220 214 215 221 221 211 213 222 229 237 240 247 252 258 264 266 268 267 268 267 267 266 268 270 271 271 270 272 275 277 281 287 292 295 298 299 301
153 162 167 133 84 35 76 84 196 146 230 212 250 271 201 156 166 156 127 130 141 138 134 136 119 142 153 160 163 159 166 176 178 174 178 165 170 184 182 184 193 192 181 180 184 187 196 202 204 207 207 204 201 197 197 199 199 201 202 202 204 204 208 216 222 218 215 224 232 240 246 252 258 263 266 267 270 270 270 268 267 262 260 261 263 265 266 267 270 274 277 279 280 281 283 286 289
153 148 142 108 76 50 89 271 274 258 242 194 238 255 184 164 157 144 127 129 142 138 138 146 137 135 144 177 193 195 173 177 175 165 180 180 177 184 186 186 193 192 184 183 186 192 197 202 204 204 203 197 191 186 185 185 184 183 181 184 189 192 197 207 220 230 224 232 244 253 260 264 266 269 271 269 270 269 268 266 265 264 260 258 257 259 260 262 265 269 274 277 279 280 281 283 284
153 140 125 85 66 66 115 223 240 245 251 200 206 214 173 169 152 137 130 129 137 154 148 152 145 129 140 186 190 197 190 199 189 156 169 188 186 187 189 191 197 190 182 188 191 196 197 199 202 199 195 188 180 176 174 172 171 167 166 167 169 175 180 207 242 272 271 266 261 266 270 270 274 272 275 275 273 270 269 269 269 272 272 271 271 271 271 271 271 271 275 278 281 283 284 284 285
145 123 92 85 48 22 138 241 248 211 252 239 199 181 167 162 154 144 154 161 165 183 162 163 167 146 224 188 179 199 203 215 210 204 186 190 194 193 194 197 201 189 184 194 196 199 199 199 198 193 186 180 175 170 168 165 161 156 152 145 137 121 113 78 41 14 8 8 0 347 322 306 302 296 295 292 290 288 285 289 289 291 291 293 294 294 293 290 290 287 285 285 284 284 284 285 285
129 105 98 101 72 332 268 270 267 233 251 253 229 179 166 161 160 151 161 170 161 183 176 173 178 173 201 189 198 203 206 219 215 219 212 203 202 200 201 202 204 193 192 199 201 202 199 198 194 189 183 178 175 170 168 163 155 149 143 135 127 112 103 86 79 60 53 50 47 52 50 54 51 54 53 53 50 45 42 26 21 4 348 338 333 331 327 323 320 315 312 308 302 298 293 291 288
107 129 127 79 110 289 292 273 252 268 257 219 201 179 164 163 165 157 157 167 165 171 181 179 185 193 180 187 208 208 209 217 214 216 214 210 207 207 208 208 206 199 202 205 203 204 200 200 197 193 188 182 176 171 166 159 152 147 140 132 123 112 107 96 97 87 85 80 77 79 76 79 75 77 76 76 75 70 70 63 62 51 41 24 10 3 356 353 349 346 343 339 336 331 323 316 309
75 219 150 64 92 254 258 253 251 273 278 233 199 176 163 165 162 164 160 158 173 162 169 173 191 205 190 212 217 215 212 211 215 217 212 210 212 213 214 214 210 203 208 210 208 210 206 206 204 199 192 184 177 169 161 155 151 146 140 131 121 111 111 106 105 100 100 97 96 97 94 96 88 88 83 79 77 71 72 66 65 57 51 37 20 8 357 355 351 351 351 349 350 349 346 342 338
23 289 93 107 196 215 222 254 266 271 293 304 223 185 167 169 161 176 172 163 171 159 172 178 188 195 189 255 225 224 216 207 208 212 215 213 214 215 218 219 215 208 208 213 215 214 214 213 209 202 193 186 176 166 160 156 153 150 145 134 124 117 116 112 112 109 108 107 108 108 107 104 99 98 91 86 81 73 68 58 56 50 44 36 25 11 357 350 345 345 345 345 347 347 348 347 347
245 311 88 164 209 204 248 276 273 287 303 278 226 188 170 177 185 200 188 174 168 161 189 194 188 177 186 230 220 225 220 211 208 209 215 216 218 217 218 220 217 212 210 215 218 217 218 217 212 205 195 187 177 167 162 160 159 155 148 137 126 122 120 119 118 116 116 116 117 116 112 109 105 101 94 89 81 73 67 57 50 43 39 35 29 23 14 4 353 347 344 341 342 341 342 345 345
262 323 93 227 266 249 254 269 283 293 285 265 192 168 175 190 214 209 196 181 181 186 213 205 196 184 195 195 217 225 216 214 212 210 214 216 220 219 220 221 220 217 215 218 218 219 218 216 214 206 197 190 181 172 167 166 165 161 153 142 132 127 125 123 121 121 122 121 122 118 110 106 101 94 85 77 70 62 55 49 43 37 32 28 23 21 18 14 10 3 1 355 350 345 342 344 343
280 319 69 207 320 314 247 232 263 251 255 243 162 165 183 209 232 218 214 213 202 202 200 194 195 194 201 196 226 234 221 221 215 208 213 215 217 218 221 221 222 222 221 222 221 221 219 218 215 208 201 194 186 178 175 174 173 172 165 161 152 148 144 138 135 130 127 124 120 110 102 96 86 76 69 59 51 44 39 35 31 28 24 21 18 14 12 9 7 3 2 0 358 358 352 352 348
283 308 58 349 283 285 255 235 247 232 255 226 169 173 191 223 223 221 230 228 214 200 189 187 197 210 215 206 229 240 226 225 214 209 211 214 216 216 219 220 222 224 225 225 224 225 221 220 218 212 205 197 193 186 183 183 182 185 184 188 188 188 190 180 177 161 154 142 113 93 91 81 66 54 45 37 31 28 25 24 22 20 18 15 12 8 5 0 358 355 353 352 351 351 349 347 345
268 282 88 299 246 228 242 233 243 207 249 246 185 187 187 241 223 218 238 234 227 205 200 202 207 219 231 229 235 234 225 220 209 208 210 212 215 215 218 219 221 224 227 228 228 227 224 222 221 218 210 202 199 193 192 192 191 195 196 202 205 212 221 229 244 249 263 278 324 73 80 23 24 16 17 17 17 18 16 18 17 15 13 9 6 1 357 352 349 346 342 340 339 338 338 337 337
201 113 152 241 231 216 208 207 231 186 214 231 204 200 191 230 227 220 242 240 236 229 220 221 220 225 235 241 241 236 229 221 215 214 215 215 217 219 220 222 223 226 229 230 231 230 227 225 224 222 216 208 205 201 199 198 198 202 203 207 211 216 223 233 247 254 265 270 270 270 281 298 323 346 1 7 9 13 12 14 13 10 8 3 359 354 351 347 341 338 334 331 329 328 327 326 327
193 156 168 230 215 223 243 253 251 222 207 200 198 209 206 232 232 213 236 244 233 234 235 227 226 229 234 240 240 238 233 228 227 226 227 227 228 229 228 226 226 228 231 233 235 235 231 227 227 226 220 213 211 208 205 203 203 206 207 210 212 217 222 231 241 247 253 256 262 269 277 285 294 311 327 340 348 354 357 359 360 358 356 353 350 348 345 342 339 334 329 326 323 321 319 317 318
208 195 214 244 226 249 278 287 267 261 245 196 199 217 214 236 229 200 220 253 239 230 236 222 221 229 231 236 236 235 234 233 233 234 235 237 238 238 236 234 234 235 238 240 238 237 235 230 229 228 223 216 214 212 209 207 206 207 209 211 214 217 222 229 236 242 245 249 255 259 262 266 273 283 295 307 316 324 329 331 334 335 335 336 336 337 338 338 338 334 329 324 320 318 316 315 316
198 184 207 241 232 273 277 289 285 264 266 245 270 245 238 245 227 212 211 248 259 239 242 235 233 238 233 233 234 235 236 234 235 236 238 239 240 240 241 242 243 244 242 240 238 237 236 234 231 230 225 219 217 216 213 211 209 209 210 211 214 217 221 226 231 237 240 244 246 249 252 254 260 267 274 284 293 300 305 309 312 314 317 321 324 327 332 335 336 334 330 324 319 317 317 318 318
206 214 224 239 249 281 277 287 286 266 270 262 266 269 264 253 230 226 210 211 245 248 254 253 250 250 243 239 238 237 237 238 238 239 241 243 244 244 244 243 241 239 238 237 238 238 238 236 233 230 227 222 220 219 216 214 213 212 212 213 215 217 221 225 228 232 235 239 241 244 248 252 258 260 262 265 271 280 285 291 295 300 303 308 315 320 327 332 334 333 330 326 324 323 323 325 326
222 249 234 242 247 254 272 279 279 269 263 254 259 262 263 256 252 243 224 231 248 253 258 260 262 261 252 247 241 237 238 240 242 244 246 246 246 246 246 245 242 240 240 240 239 238 237 235 234 231 228 225 223 221 218 216 215 214 214 215 217 219 221 224 227 229 232 234 237 240 244 250 256 258 259 260 264 268 272 277 282 288 294 301 308 316 324 331 335 334 332 330 329 328 327 329 330
213 257 251 252 253 255 270 277 274 266 260 260 262 266 263 246 254 257 239 244 253 256 254 251 259 267 255 244 240 240 242 244 247 249 250 249 249 250 249 249 248 246 244 242 240 238 237 236 234 233 229 227 225 223 221 219 217 216 216 216 217 219 221 224 226 228 230 231 234 237 241 247 252 256 258 260 264 267 271 275 279 285 291 298 304 313 323 331 336 335 334 333 330 328 326 328 328
212 245 261 266 267 265 275 283 277 268 265 265 260 256 256 249 256 269 256 255 257 256 255 253 253 258 256 246 241 241 243 245 248 248 248 248 248 246 246 247 245 243 243 242 241 240 238 237 235 234 230 228 227 226 224 222 220 218 218 219 219 220 221 223 225 227 229 230 234 237 240 245 248 253 256 260 263 267 273 277 281 285 290 298 305 313 323 331 335 335 335 332 327 326 326 327 327
217 235 261 282 283 277 281 284 279 273 265 256 244 251 256 256 267 273 263 261 262 259 256 255 251 250 250 248 246 243 243 245 247 248 248 247 245 243 243 243 242 243 243 242 242 242 240 238 236 235 232 229 228 227 226 224 222 221 221 221 220 221 222 223 225 226 228 230 234 237 240 243 246 250 254 259 263 267 272 276 281 284 289 297 304 311 321 328 333 335 332 328 325 325 325 326 327
240 259 283 286 284 287 284 280 278 275 267 247 224 248 260 258 261 266 266 267 265 260 255 254 249 244 245 245 246 246 247 249 251 251 250 246 243 244 244 242 243 244 243 241 242 242 241 239 237 235 231 229 228 228 227 226 225 224 223 222 222 222 222 223 225 226 228 230 233 236 239 241 245 248 253 258 262 266 270 274 279 283 288 295 301 307 317 326 332 334 332 330 327 326 327 328 329
284 305 310 288 290 296 283 275 275 271 266 244 219 246 273 260 218 247 262 267 264 257 255 253 246 243 243 242 244 246 248 252 253 251 249 249 248 248 247 245 245 244 243 242 242 241 241 240 238 236 232 228 228 228 227 227 227 225 224 224 224 224 224 225 226 227 229 230 233 236 238 240 243 247 251 256 260 264 268 273 278 282 288 293 299 305 316 328 335 336 335 333 329 329 330 329 329
299 313 312 289 312 302 275 269 265 252 248 235 196 274 282 237 227 246 259 264 259 257 257 254 246 243 241 241 243 245 249 251 249 249 250 252 253 252 251 251 249 246 246 245 242 242 242 242 240 237 233 229 229 228 228 228 228 227 226 226 226 226 225 227 228 227 230 231 233 235 236 239 241 245 249 253 258 262 266 270 276 280 287 294 300 307 318 329 333 335 334 332 330 330 328 325 327
296 287 231 284 329 298 269 263 252 240 231 201 157 247 270 239 241 250 262 265 258 254 253 252 247 245 242 240 243 245 249 249 248 251 253 254 254 254 253 253 250 248 247 244 242 243 242 242 241 239 235 231 229 228 227 228 229 228 227 227 227 228 227 228 229 228 230 232 233 234 236 238 240 243 246 250 255 259 263 268 274 281 290 297 302 306 314 323 328 331 331 332 332 330 328 327 329
279 291 232 259 288 277 272 261 213 217 213 177 155 233 258 258 258 258 268 263 253 247 248 250 245 244 243 241 242 245 248 249 253 258 257 256 255 255 255 253 250 247 245 243 243 244 242 241 240 240 238 234 230 228 228 228 229 229 229 228 227 228 228 229 230 229 230 231 232 234 235 237 238 241 244 248 253 256 261 267 275 283 291 297 299 301 307 317 325 328 331 334 334 331 331 332 332
230 246 280 256 215 260 282 273 200 197 203 166 157 228 255 262 267 268 271 260 247 239 244 247 242 242 241 242 243 244 248 250 255 259 259 257 254 254 256 255 251 246 245 244 243 242 240 241 240 240 239 236 233 229 228 229 229 229 229 230 229 229 230 230 230 230 231 232 232 234 235 236 237 239 242 247 251 255 260 266 274 282 289 294 296 297 303 312 321 326 331 335 335 334 335 334 333
283 199 250 259 234 262 292 287 220 186 165 171 188 216 251 261 268 271 270 257 245 233 241 245 241 243 239 241 243 244 249 251 254 258 259 256 253 253 254 255 254 250 248 245 242 240 240 240 239 240 240 239 236 231 229 229 229 230 230 230 229 230 231 231 231 230 231 231 232 233 234 235 236 239 241 246 250 253 258 263 271 279 285 290 292 294 300 307 315 324 330 336 338 338 336 333 332
284 215 237 251 245 259 270 293 278 156 150 197 220 227 248 256 272 273 267 264 246 227 236 242 240 243 242 242 242 243 247 251 258 262 261 257 256 255 252 253 254 251 247 244 242 241 240 241 240 240 240 240 237 233 231 229 229 230 230 230 229 230 231 231 232 231 231 231 233 234 234 234 236 238 241 244 248 250 253 259 266 273 279 286 289 291 295 301 310 322 332 338 339 338 334 330 330
233 216 229 253 247 252 254 269 214 159 172 205 218 236 250 258 268 265 262 265 250 229 234 240 240 242 244 245 244 246 247 251 261 265 263 261 259 256 253 251 251 249 246 243 241 239 239 239 238 239 239 239 237 234 232 230 229 229 229 229 227 228 229 230 231 231 231 231 232 233 233 234 235 237 240 242 245 247 250 254 260 268 275 281 286 288 291 297 307 320 332 338 336 334 330 328 328
225 229 237 250 251 254 253 260 219 175 194 209 214 233 242 252 258 255 258 259 253 246 242 240 242 244 246 247 247 249 250 255 264 265 262 262 261 258 253 249 248 247 246 242 239 237 236 236 235 236 237 238 236 233 230 228 228 227 227 227 227 227 228 230 231 231 232 231 232 232 232 233 234 236 238 239 242 244 246 250 256 264 271 277 283 286 290 295 304 316 327 332 332 330 327 326 327
247 254 257 255 256 264 258 263 242 184 195 219 216 233 238 246 255 251 252 254 252 251 248 243 242 243 246 248 248 249 253 260 265 264 262 262 261 258 251 247 244 243 241 240 237 235 235 233 233 234 235 236 236 233 231 229 228 227 227 228 229 229 229 231 231 232 232 232 232 232 232 232 233 236 237 238 240 242 243 247 253 260 267 275 281 285 290 294 302 312 321 325 327 327 326 326 329
249 251 259 259 249 263 259 255 251 191 195 244 227 239 246 244 254 256 250 247 240 243 247 248 245 243 245 248 250 252 256 260 262 262 262 261 258 253 246 242 240 239 238 237 237 235 234 233 234 235 235 235 236 236 235 234 233 233 233 234 234 233 233 234 235 235 234 233 233 233 232 232 233 235 236 237 239 240 242 245 251 259 266 274 280 285 289 294 300 308 314 317 321 324 327 329 332
242 245 255 262 245 270 266 242 251 205 188 250 241 242 250 247 254 260 254 241 236 241 243 249 252 251 249 250 252 253 256 259 259 260 261 260 256 249 240 238 238 238 238 238 237 234 233 233 234 234 235 236 237 237 237 237 237 237 238 239 238 236 236 236 237 237 236 234 234 233 233 232 234 235 235 236 238 239 241 244 250 257 264 272 279 285 289 294 299 304 309 312 316 320 325 329 334
238 240 250 261 247 265 268 241 252 233 203 250 258 255 256 256 264 264 255 249 245 246 246 249 254 256 256 256 255 256 257 258 259 259 258 256 251 241 235 235 236 235 235 236 235 233 233 233 233 233 234 236 236 237 237 238 237 237 238 238 238 238 237 237 236 235 235 234 233 232 232 233 233 235 235 236 237 237 239 242 248 254 261 269 276 282 287 292 297 301 305 308 312 316 321 327 332
242 232 234 253 249 245 255 270 308 295 285 283 278 284 270 232 247 256 253 251 249 249 248 250 253 254 257 259 259 258 257 257 258 257 253 249 243 238 234 233 234 233 234 235 234 233 234 234 234 234 234 235 236 237 236 235 235 234 234 233 232 232 232 232 232 231 230 231 232 232 233 233 233 233 234 234 235 236 239 242 247 252 258 265 272 278 284 288 293 297 302 305 309 313 318 324 329
258 225 213 236 245 246 254 283 325 317 297 281 229 278 275 205 222 245 250 250 252 247 242 246 250 251 253 256 258 258 258 257 257 256 251 246 241 235 231 231 232 233 235 236 236 235 235 235 234 233 233 234 235 235 235 235 235 234 233 231 229 228 228 229 230 232 231 232 233 233 232 233 233 233 233 234 234 235 238 241 245 250 255 261 267 274 280 284 290 294 299 303 306 310 314 320 325
269 226 204 225 237 249 258 271 293 263 264 271 144 233 274 244 214 235 239 240 253 249 237 240 245 248 249 251 254 256 257 257 255 253 247 242 238 230 227 230 233 235 236 235 235 235 234 233 233 232 232 233 233 234 234 234 235 235 235 235 235 234 233 234 235 235 236 237 237 235 234 233 233 233 233 233 234 235 237 240 243 247 252 258 264 271 277 282 287 291 297 301 304 307 310 315 321
264 220 189 210 226 244 252 235 223 236 269 281 141 140 281 279 234 207 212 219 245 253 248 245 242 244 246 248 252 254 255 258 258 250 242 237 235 230 229 232 234 236 235 233 232 231 231 231 231 231 231 233 233 233 234 235 236 236 237 237 237 238 239 241 240 239 239 239 238 237 236 235 233 232 233 233 234 235 236 239 241 245 250 255 261 267 274 280 285 289 294 298 300 304 307 311 317
250 166 160 174 198 226 177 171 224 295 330 279 197 134 281 280 247 180 204 212 228 245 244 243 241 240 242 245 251 254 255 259 260 254 244 238 236 233 233 234 236 236 233 232 231 229 229 228 229 229 230 232 232 233 234 235 237 238 239 239 239 240 240 241 241 240 240 239 238 237 235 235 234 232 233 233 233 234 236 238 240 244 248 253 259 266 272 278 282 287 291 295 297 300 304 308 312
227 112 86 68 61 42 69 76 80 36 305 255 191 152 218 276 270 152 184 209 212 234 238 237 237 237 240 243 248 254 257 259 260 255 248 243 240 236 233 233 234 235 233 232 230 229 228 227 227 228 228 230 230 231 232 233 236 238 241 241 241 240 239 238 238 238 238 238 237 237 235 234 233 232 232 233 232 234 235 237 239 243 247 251 258 264 270 275 279 284 288 291 295 297 300 304 307
134 88 53 30 14 24 54 19 68 43 277 232 177 178 190 269 285 140 167 210 202 214 225 238 242 238 241 244 247 254 258 259 258 251 244 242 239 232 230 232 233 233 231 229 228 226 226 225 225 227 227 228 228 229 230 231 234 238 243 244 243 242 240 238 238 237 237 237 236 236 235 234 233 232 233 233 232 233 234 236 239 242 246 251 257 262 267 273 278 282 286 289 292 294 297 301 304
99 89 76 25 331 12 28 354 60 220 266 209 179 185 187 237 275 142 237 268 203 208 211 227 240 240 242 245 247 250 253 254 252 245 238 235 229 222 223 228 230 229 228 226 225 224 223 224 224 226 226 226 226 226 227 230 233 237 242 245 245 244 243 241 240 239 239 238 237 236 234 233 233 232 232 232 231 232 233 235 238 241 245 250 254 260 265 270 275 279 284 287 289 292 295 299 303
105 104 103 69 298 349 0 306 113 224 256 228 190 184 204 239 259 269 276 287 230 221 216 222 229 236 242 244 245 244 244 247 246 239 234 231 226 220 221 226 226 225 225 223 222 222 222 222 223 224 224 223 224 225 226 228 231 235 239 245 247 245 244 243 243 242 241 241 239 238 236 235 233 232 232 233 232 233 234 236 238 241 245 248 252 257 262 267 272 276 281 285 288 291 295 300 302
163 148 142 168 209 223 260 256 265 261 262 253 191 168 242 275 281 232 241 244 230 221 219 226 228 234 241 242 241 242 243 243 240 235 231 232 231 227 225 228 226 224 223 221 221 221 220 221 221 222 223 223 225 226 225 227 230 233 236 242 246 246 245 244 243 243 242 242 241 240 240 239 238 238 237 237 235 235 235 236 238 240 243 246 250 255 260 265 270 274 279 283 287 291 294 298 300
182 156 146 175 173 174 214 236 246 268 281 271 183 163 237 289 264 214 222 247 247 229 225 228 229 235 244 245 242 244 244 238 233 231 231 234 236 233 231 232 230 228 224 220 220 220 220 221 221 221 221 223 226 226 226 227 229 232 234 237 242 246 247 245 244 244 243 242 242 241 242 242 242 242 241 240 237 235 235 235 237 239 241 245 248 253 258 263 268 273 279 283 286 289 292 295 297
218 122 119 203 194 187 221 258 232 204 312 280 208 201 240 254 255 241 239 262 262 234 228 230 233 237 243 246 244 244 240 232 228 227 228 233 236 235 234 235 234 232 227 223 222 222 223 223 222 222 222 223 226 227 227 228 229 231 233 235 237 242 246 246 245 244 243 243 243 242 242 243 243 242 241 239 236 234 235 235 236 238 240 244 248 252 257 262 268 274 279 282 285 287 291 294 294
188 124 184 214 163 169 214 288 288 113 273 271 230 236 278 312 284 261 246 253 258 253 243 237 238 239 239 242 241 240 234 227 226 227 228 232 235 236 237 236 236 234 231 228 227 227 228 228 226 224 224 225 227 229 230 230 229 231 234 235 235 238 243 247 247 245 243 242 242 242 242 242 242 241 240 237 234 234 234 234 236 238 240 244 248 252 257 262 268 274 278 281 284 287 290 292 292
129 179 215 176 59 107 156 245 322 272 251 265 265 261 278 300 283 302 18 290 262 256 248 237 237 238 237 238 237 235 230 225 226 228 229 233 236 238 238 236 238 241 240 235 233 233 233 232 231 229 227 227 228 231 232 232 231 232 234 235 236 237 239 245 248 246 244 242 241 240 240 240 240 239 238 235 233 233 233 234 235 237 240 243 247 251 257 263 268 273 277 280 283 286 288 290 291
131 206 217 106 138 222 155 168 222 240 242 259 272 274 270 254 261 289 307 266 244 236 234 234 237 238 238 240 239 235 225 220 222 225 229 235 238 239 239 238 241 247 249 242 236 236 237 237 236 234 233 232 231 232 232 233 234 235 236 237 237 237 238 240 243 244 244 242 241 240 239 239 238 237 236 235 234 233 233 234 234 237 240 242 247 252 256 262 267 271 276 279 282 285 287 288 288
71 4 346 14 180 180 181 177 169 222 240 253 267 277 275 247 235 252 252 240 233 234 233 234 239 239 241 243 243 239 226 218 222 227 234 242 243 241 241 242 245 253 256 247 238 238 242 245 240 236 236 234 232 233 233 235 237 238 239 238 238 238 238 238 239 242 243 243 242 241 240 240 238 237 236 235 235 234 234 234 235 237 240 242 247 251 256 261 265 270 274 276 280 283 285 286 286
182 210 248 261 225 165 225 236 176 219 239 246 252 261 269 252 187 148 266 239 224 229 228 231 235 236 242 245 245 243 234 226 228 234 241 246 245 244 245 245 247 254 255 247 241 241 246 250 246 241 238 236 234 234 235 237 237 238 242 242 239 238 238 238 238 239 241 242 242 242 241 240 238 238 237 236 235 234 233 234 235 237 240 243 246 250 254 259 263 268 272 275 279 281 283 285 285
183 197 207 205 205 190 249 250 227 230 242 242 249 254 263 265 256 0 304 242 223 229 224 233 238 234 238 244 249 250 244 237 238 244 250 251 248 245 247 249 253 256 256 250 245 245 249 256 256 248 241 238 237 237 237 237 237 239 245 246 241 238 238 238 238 238 239 240 242 243 241 239 237 237 237 236 234 233 232 233 235 237 239 241 244 248 253 258 263 267 271 276 279 280 281 282 284